Location: Lafig�re
(44.4503°N, 4.0357°E)
Time: 04:48:51
(UTC+00:00)

NOSS 3-2 (C) - Pass Details

Date: 24 September 2020
Orbit: 795 x 1418 km, 63.4° (Epoch: 02 October)

Event Time Altitude Azimuth Distance (km) Brightness Sun altitude
Rises 17:57:00 0° 323° (NW) 3,908 7.3 -4.4°
Reaches altitude 10° 17:59:40 10° 329° (NNW) 3,037 6.6 -4.9°
Maximum altitude 18:06:48 48° 43° (NE) 1,599 4.4 -6.2°
Drops below altitude 10° 18:14:50 10° 116° (ESE) 3,420 5.7 -7.6°
Enters shadow 18:16:07 - 119° (ESE) 3,833 6.0 -7.8°
